CAPE
1475 1433 1628 1716 1641 1539 1480 1476 1792 1540 1677 1964 2018 1951 1903 1379 1068 984 994 993 639 600 414 625 541 430 397 421 551 677 932 1218 1562 1522 1238 1539 1614 1565 1587 1629 1648 1402 1022 663 649 498 511 312 217 336 157 170 338 598 616 417 308 211 134 117 50 9 1 0 0 0 0 0 0 0 0 0 0 0 0 0 0 2 2 0 7 4 2 2 2
1215 1268 1280 1769 1281 1155 1400 1574 1474 1435 1565 1673 1905 1668 1477 1480 1385 1262 1086 1072 931 698 552 529 412 444 350 344 408 630 622 1098 1375 1365 1142 1557 1630 1388 1649 1706 1565 1208 1346 798 566 504 482 260 224 298 260 157 137 509 845 705 512 379 267 167 81 16 10 2 0 0 0 0 0 0 0 0 0 0 0 0 0 0 0 0 0 1 0 0 0
1072 1032 1701 1510 1034 777 852 1287 1688 1710 1662 1757 1844 1682 1616 1473 1417 1466 1375 1292 955 816 334 540 505 433 153 151 461 647 507 676 1120 1048 1096 1370 1826 1657 1654 1656 1616 1588 1335 983 1122 635 465 346 176 284 257 203 154 139 323 888 703 580 390 183 128 69 56 5 0 0 0 0 0 0 0 0 0 0 0 0 0 0 0 0 0 0 0 0 0
1660 1549 1332 1466 1128 724 790 1021 1366 1646 1703 1600 1049 1445 1492 1236 1596 1748 1749 1476 1012 809 594 588 513 414 152 158 382 419 457 509 669 875 1120 1500 1624 2020 1890 1316 1537 1672 1547 1046 884 872 647 461 242 261 242 231 229 192 127 149 480 723 587 316 173 116 78 25 0 0 0 0 0 0 0 0 0 0 0 0 0 0 0 0 0 0 0 0 0
1155 853 934 1141 1285 956 895 974 999 1225 1527 1423 1088 1624 1259 1590 1678 1530 1396 898 830 792 580 704 581 479 500 439 448 390 419 424 545 722 947 1184 1299 1538 1663 1908 1711 1682 1373 1399 924 1020 913 1384 402 222 204 232 173 199 208 65 113 434 691 490 290 173 118 53 12 0 0 0 0 0 0 0 0 0 0 0 0 0 0 0 0 0 0 0 0
1034 952 779 868 1159 997 874 1378 1119 1484 1546 1709 1586 1432 1154 1394 1476 1356 1213 1360 1341 1100 880 925 835 605 536 563 473 576 496 488 617 737 1034 1215 1434 1856 1612 1197 1289 1699 1454 1458 1289 1047 1004 864 717 375 214 223 166 189 129 175 41 67 541 664 474 351 192 96 34 5 0 0 0 0 0 0 0 0 0 0 0 0 0 0 0 0 0 0 0
1001 923 1056 809 1135 1432 1320 1371 1086 1270 1361 1526 1553 1427 1184 1132 1454 1014 1420 1455 1432 1101 1066 1193 1095 843 788 711 626 528 566 644 544 647 748 1094 1649 1814 1827 1326 1122 1259 1325 1410 1653 988 957 838 902 747 510 341 285 218 161 146 143 100 42 893 562 433 296 178 95 36 7 0 0 0 0 0 0 0 0 0 0 0 0 0 0 0 0 0 0
1199 1093 1307 1118 1069 1206 1268 1124 1229 1113 1524 1576 1422 892 819 1647 1340 888 1356 1186 1212 1207 1117 1220 1102 1106 1002 957 938 774 876 821 818 673 787 910 952 1624 1656 1474 1683 1353 1318 1380 1284 1243 738 835 957 968 795 620 562 370 203 226 171 179 40 613 553 546 462 323 183 119 64 18 1 0 0 0 0 0 0 0 0 0 0 0 0 0 0 0 0
1628 1430 1662 1592 1365 1425 1442 1450 1266 1189 1400 1490 908 1010 901 978 904 1261 1607 1587 1156 1151 1184 1265 1316 1206 1089 1028 1050 753 1080 1231 1243 1377 1065 948 1042 952 1185 1566 1646 1167 1528 1649 1176 1190 987 675 998 675 1071 1037 867 610 260 198 240 249 167 210 671 665 511 467 374 256 153 100 32 0 0 0 0 0 0 0 0 0 0 0 0 0 0 0 0
1581 1579 1691 1424 1487 1392 1444 1538 1459 1447 1419 1336 813 978 1037 725 994 1754 1704 1719 1353 1213 1360 1352 1198 1182 1217 1052 1045 1062 1138 1009 1132 818 1080 1318 1516 1123 1330 1593 1905 1354 1332 1553 1618 1431 1207 1053 750 802 739 1059 902 876 645 549 521 376 307 240 548 636 462 440 455 466 339 224 131 46 1 3 0 0 0 0 0 0 0 0 0 0 0 0 0
1294 1327 1561 1452 1282 1273 1356 1440 1548 1557 1408 1226 1068 892 1062 1463 1703 1727 1643 1605 1633 1584 1503 1368 1451 1371 1405 1429 1271 1087 1087 1032 1060 1234 1520 1390 1406 1346 994 1445 1881 1867 1498 1311 1619 1449 940 687 687 664 674 554 926 1320 876 892 973 1128 768 527 391 429 564 559 228 606 527 458 242 124 37 14 2 0 0 0 0 0 0 0 0 0 0 0 0
1064 1301 1542 1340 1177 1175 1353 1450 1430 1404 1372 1188 1050 992 1314 1621 1847 1843 1648 1474 1135 1212 1389 1367 1304 1454 1248 1305 1182 1075 1064 1171 1454 1429 1287 1269 1769 1574 1434 1477 1486 1778 1409 1459 1877 972 1467 800 577 619 656 761 561 842 1214 1177 982 963 1012 818 729 592 573 379 436 247 517 536 482 276 132 66 34 0 0 0 0 0 0 0 0 0 0 0 0
939 965 1087 1263 1329 1304 1297 1283 1259 1325 1268 1176 1172 1204 1382 1694 1738 1537 1649 1316 1073 1075 812 1048 1071 1118 1022 1098 1413 1184 1139 1160 1286 1225 1259 1447 1672 1685 1534 1450 1630 1686 1732 1594 1457 1434 945 752 1000 772 724 766 642 582 587 647 634 929 762 655 789 689 667 654 538 513 372 556 603 518 234 150 108 24 0 0 0 0 0 0 0 0 0 0 0
883 808 863 987 1276 1353 1305 1305 1276 1204 1137 1107 1095 1066 1502 1628 1496 1620 1428 1122 1053 1131 978 979 901 1073 1172 953 1004 1203 1445 1417 1279 904 989 986 1310 1550 1509 1458 1379 1481 1423 1219 1204 1167 1139 1173 1260 948 765 827 553 624 576 598 655 728 535 586 784 748 758 664 727 717 698 602 555 635 561 242 185 106 28 0 0 0 0 1 0 0 0 0 0
743 802 740 688 711 752 1122 1156 1505 1242 1148 1136 1106 1088 1284 1416 1525 1404 1288 1438 1432 1512 1660 1020 1376 1157 1395 1048 904 844 1101 1336 1410 1191 1302 1347 1274 1144 954 966 1062 1137 1333 1355 1117 988 936 783 847 841 818 642 700 713 778 600 647 548 499 609 599 703 766 783 766 767 770 725 857 670 750 448 263 195 131 49 15 2 0 0 0 0 0 0 0
413 306 359 596 547 501 641 763 905 1496 1340 1070 1007 1027 1194 1328 1354 1380 1189 1142 1095 1180 1359 1544 1341 638 1073 760 821 838 614 386 923 1088 1313 1406 1292 990 1136 992 1011 1129 1260 1256 1083 1297 1244 997 791 895 781 566 580 727 706 921 784 365 482 329 355 416 768 785 720 675 670 642 871 927 930 772 479 309 234 164 97 29 1 0 0 0 0 0 0
574 332 264 490 567 548 544 642 822 980 1265 1122 1130 1029 1140 1387 1434 1349 1232 1152 865 986 1204 1374 1432 1411 698 601 572 784 645 471 696 646 827 908 951 964 1095 1087 1224 1314 1117 940 722 611 735 721 778 678 741 1038 891 803 1222 592 895 970 608 410 249 338 442 655 849 834 794 778 796 972 950 1027 831 525 341 251 168 102 49 6 0 0 0 0 0
364 328 238 403 640 595 687 566 781 839 775 1278 1086 1246 1321 1195 1338 1455 1429 1395 1344 797 965 1014 1147 1257 1332 1258 715 979 1086 514 913 523 521 582 958 546 813 879 1009 1104 1057 1241 1443 1605 1012 1242 1038 1074 1213 1283 1045 1190 1231 970 1110 873 905 532 259 207 185 284 382 785 862 736 716 877 852 701 526 814 523 380 256 190 128 74 6 0 0 1 1
287 302 300 450 566 566 730 702 640 760 583 554 523 560 341 400 717 1449 1430 1381 1369 1093 1046 1130 1054 1085 1151 1267 1296 1461 1336 1296 820 473 436 400 593 690 667 692 818 1004 1008 704 985 1067 981 760 803 885 1102 950 969 1029 717 324 237 226 221 201 203 172 228 230 228 364 569 881 1111 985 870 807 609 514 488 544 429 330 216 164 101 53 19 4 3
188 212 260 214 259 384 562 671 420 286 249 280 356 308 318 474 562 735 785 1336 1413 1236 1150 1103 1042 1072 1003 1008 1024 1173 1352 1393 1207 724 368 193 326 266 273 212 331 533 712 1006 1027 1113 756 453 619 702 796 551 744 745 672 525 316 368 180 219 212 249 240 200 328 361 374 452 608 750 859 748 666 564 481 472 401 467 360 287 210 173 124 54 34
321 354 209 120 118 197 277 323 383 271 126 172 207 244 420 508 679 624 1082 1361 1618 1575 1446 1316 1314 1406 1117 1161 996 1115 1148 1328 1264 1230 740 617 640 642 358 186 204 141 216 314 551 503 440 456 532 575 632 458 534 374 309 306 312 86 159 184 288 211 199 207 203 308 358 376 378 508 715 648 555 535 408 461 398 346 356 321 263 217 224 164 141
390 363 170 33 87 101 95 182 293 106 93 6 60 152 212 571 1144 1306 1299 1324 1338 1388 1311 1400 1384 1330 1232 1214 1170 1084 1013 912 1102 1110 1116 855 670 548 554 435 197 13 65 282 256 176 54 57 4 28 103 174 224 60 247 241 234 62 126 248 240 137 189 232 260 303 302 319 275 357 396 454 622 392 372 464 448 383 348 333 303 344 306 263 288
216 279 232 42 24 76 202 113 96 16 0 0 46 36 132 194 240 260 516 914 1050 1121 1094 1030 988 931 1125 1129 1044 1005 977 1060 1040 910 726 568 417 161 46 31 10 0 0 0 0 0 0 23 0 0 0 2 3 0 87 0 30 15 47 45 56 81 136 201 220 233 266 287 145 264 412 506 459 417 419 471 501 550 512 411 343 379 354 378 380
170 68 64 16 0 19 23 6 14 2 0 26 72 8 25 18 22 24 58 202 321 354 418 810 1046 1087 1066 1001 902 865 850 902 727 638 537 323 344 121 2 0 0 1 0 0 0 0 0 0 0 0 0 0 0 0 0 21 17 32 0 0 0 10 46 88 183 174 164 87 102 84 94 208 279 364 426 448 487 498 473 439 498 411 423 390 408
22 0 53 5 2 27 46 5 0 0 22 18 4 4 0 0 0 0 0 0 22 69 64 243 113 89 148 129 51 124 124 160 484 682 541 437 342 144 10 6 4 2 0 0 0 0 0 0 0 0 0 0 0 0 0 0 0 0 0 0 34 49 30 7 4 23 23 0 0 0 0 9 38 114 144 237 352 294 317 420 457 404 397 353 286
12 8 0 0 0 0 0 0 0 0 0 0 1 0 1 0 0 0 0 0 0 0 0 2 4 6 4 0 0 0 0 0 0 31 321 235 169 187 136 42 14 0 0 0 0 0 0 0 0 0 0 0 0 0 0 0 0 0 0 0 27 35 34 8 0 0 0 0 0 0 0 0 0 0 0 36 70 96 83 9 93 178 272 314 334
3 9 0 0 0 0 0 0 0 0 0 0 0 0 0 0 0 0 0 0 0 0 0 0 0 0 0 0 0 0 0 0 0 0 0 7 33 20 12 4 2 0 0 0 0 0 0 0 0 0 0 0 0 0 0 58 61 0 0 39 56 51 0 0 0 0 0 0 0 0 0 0 0 0 0 0 0 0 0 0 0 0 0 0 64
6 13 2 0 0 0 0 0 0 0 0 0 0 0 0 0 0 0 0 0 0 0 0 0 0 0 0 0 0 0 0 0 0 0 0 0 5 9 0 0 0 0 0 0 0 0 0 0 0 0 0 0 0 0 0 0 33 0 0 0 0 0 0 0 0 0 0 0 0 0 0 0 0 0 0 0 0 0 0 0 0 0 0 0 0
33 33 4 0 0 0 0 0 0 0 0 0 0 0 0 0 0 0 0 0 0 0 0 0 0 0 0 0 0 0 0 0 0 0 0 0 0 0 1 0 0 0 0 0 0 0 0 0 0 0 0 0 0 0 0 0 0 0 0 0 0 0 0 0 0 0 0 0 0 0 0 0 0 0 0 0 0 0 0 0 0 0 0 0 0
51 37 21 1 0 0 0 0 0 0 0 0 0 0 0 0 0 0 0 0 0 0 0 0 0 0 0 0 0 0 0 0 0 0 0 0 0 0 0 1 0 0 0 0 0 0 0 0 0 0 0 0 0 0 0 0 0 0 0 0 0 0 0 0 0 0 0 0 0 0 0 0 0 0 0 0 0 0 0 0 0 0 0 0 0
4 38 23 2 2 2 0 0 0 0 0 0 0 0 0 0 0 0 0 0 0 0 0 0 0 0 0 0 0 0 0 0 0 0 0 0 0 0 0 0 0 4 0 0 0 0 0 0 0 0 0 0 0 0 0 0 0 0 0 0 0 0 0 0 0 0 0 0 0 0 0 0 0 0 0 0 0 0 0 0 0 0 0 0 0
11 14 4 2 3 12 1 0 2 0 0 0 0 0 0 0 0 0 0 0 0 0 0 0 0 0 0 0 0 0 0 0 0 0 0 0 0 0 0 0 0 0 0 0 0 0 0 0 0 0 0 0 0 0 0 0 0 0 0 0 0 0 0 0 0 0 0 0 0 0 0 0 0 0 0 0 0 0 0 0 0 0 0 0 0
53 14 2 2 0 0 0 0 0 7 1 1 7 3 0 0 0 0 0 0 0 0 0 0 0 0 0 0 0 0 0 0 0 0 0 0 0 0 0 0 0 0 0 0 0 0 0 0 0 0 0 0 0 0 0 0 0 0 0 0 0 0 0 0 0 0 0 0 0 0 0 0 0 0 0 0 0 0 0 0 0 0 0 0 0
189 49 4 30 6 0 0 0 1 5 7 27 12 12 6 15 6 0 0 0 0 0 0 0 0 0 0 0 0 0 0 0 0 0 0 0 0 0 0 0 0 0 0 0 0 0 0 0 0 0 0 0 0 0 0 0 0 0 0 0 0 0 0 0 0 0 0 0 0 0 0 0 0 0 0 0 0 0 0 0 0 0 0 0 0
275 84 111 136 28 6 3 2 1 1 0 2 20 31 32 59 34 43 45 28 12 3 0 0 0 0 0 0 0 0 0 0 0 0 0 0 0 0 0 0 0 0 0 0 0 0 0 0 0 0 0 0 0 0 0 0 0 0 0 0 0 0 0 0 0 0 0 0 0 0 0 0 0 0 0 0 0 0 0 0 0 0 0 0 0
270 229 152 179 120 181 166 170 150 120 108 142 122 101 82 65 42 60 57 58 44 46 32 1 1 0 0 0 0 0 0 0 0 0 0 0 0 0 0 0 0 0 0 0 0 0 0 0 0 0 0 0 0 0 0 0 0 0 0 0 0 0 0 0 0 0 0 0 0 0 0 0 0 0 0 0 0 0 0 0 0 0 0 0 0
559 535 444 324 319 301 454 345 394 418 392 347 332 363 458 355 195 149 133 140 172 84 108 78 8 7 3 0 3 0 0 0 0 0 0 0 0 0 0 0 0 0 0 0 0 0 0 0 0 0 0 0 0 0 0 0 0 0 0 0 0 0 0 0 0 0 0 0 0 0 0 0 0 0 0 0 0 0 0 0 0 0 0 0 0
662 784 736 679 560 568 545 424 480 500 468 521 538 525 543 540 442 418 462 405 294 185 130 48 4 2 10 4 0 0 0 0 0 0 0 0 0 0 0 0 0 0 0 0 0 0 0 0 0 0 0 0 0 0 0 0 0 0 0 0 0 0 0 0 0 0 0 0 0 0 0 0 0 0 0 0 0 0 0 0 0 0 0 0 0
656 768 827 836 913 789 710 651 640 671 692 699 685 597 568 634 616 630 771 462 342 363 454 391 192 83 43 5 3 0 0 0 0 0 0 0 0 0 0 0 0 0 0 0 0 0 0 0 0 0 0 0 0 0 0 0 0 0 0 0 0 0 0 0 0 0 0 0 0 0 0 0 0 0 0 0 0 0 0 0 0 0 0 0 0
720 690 778 872 1000 927 892 944 846 891 916 825 720 635 538 635 648 642 641 643 516 485 584 468 421 364 202 80 58 43 24 0 0 0 0 0 0 0 0 3 0 1 0 0 0 0 0 0 0 0 0 0 0 0 0 0 0 0 0 0 0 0 0 0 0 0 0 0 0 0 0 0 0 0 0 0 0 0 0 0 0 0 0 0 0
950 758 865 901 1132 1032 1099 1089 1024 995 970 812 784 874 888 859 829 904 1028 972 896 912 967 923 802 672 557 411 192 85 24 0 0 0 0 0 0 0 0 0 0 0 0 0 0 0 1 0 0 0 0 2 0 0 0 0 0 0 0 0 0 0 0 0 0 0 0 0 0 0 0 0 0 0 0 0 0 0 0 0 0 0 0 0 0
1207 1007 914 956 1042 1021 915 934 1072 1214 1108 979 1122 502 570 815 999 790 948 884 828 957 969 955 892 700 562 559 423 64 3 0 0 0 0 0 0 0 0 0 0 0 0 0 0 0 0 0 1 0 0 0 5 0 0 0 0 0 0 0 0 0 0 0 0 0 0 0 0 0 0 0 0 0 0 0 0 0 0 0 0 0 0 0 0
1072 1063 1037 938 1029 1028 943 1030 1202 1327 1204 928 0 0 0 13 740 1195 1167 1243 1220 1130 1108 1124 1078 969 1007 777 765 295 90 0 0 0 0 0 0 0 0 0 0 18 0 0 0 0 0 0 0 0 0 0 1 0 0 0 0 0 0 0 0 0 0 0 0 0 0 0 0 0 0 0 0 0 0 0 0 0 0 0 0 0 0 0 0
1116 1209 1183 1114 1078 1165 1191 1092 1117 1200 1238 630 16 4 14 9 4 1069 1203 1266 1392 1383 1336 1259 1088 980 878 905 785 516 267 186 91 0 0 0 0 0 0 0 4 27 21 8 0 0 0 0 0 3 0 0 0 0 0 0 0 0 0 0 0 0 0 0 0 0 0 0 0 0 0 0 0 0 0 0 0 0 0 0 0 0 0 0 0
644 635 382 830 657 798 918 863 675 733 1072 618 23 14 28 392 423 570 1413 1346 1124 1134 1057 1030 927 798 811 798 941 720 251 234 283 271 249 116 0 60 74 0 0 0 33 25 30 0 0 0 7 6 1 1 1 0 0 0 0 0 0 0 0 0 0 0 0 0 0 0 0 0 0 0 0 0 0 0 0 0 0 0 0 0 0 0 0
472 519 530 251 173 519 538 682 830 678 600 574 216 350 208 465 454 518 1174 767 527 400 375 345 445 306 352 312 325 351 293 139 135 226 318 276 0 0 0 0 0 0 0 0 0 2 0 0 0 0 0 0 0 0 0 0 0 0 0 0 0 0 0 0 0 0 0 0 0 0 0 0 0 0 0 0 0 0 0 0 0 0 0 0 0
423 382 83 53 60 324 488 672 788 1047 667 372 353 416 468 523 446 372 680 370 142 104 164 383 370 469 517 495 353 272 232 295 228 203 30 267 0 0 0 0 0 0 0 0 1 4 3 5 1 3 0 0 0 0 0 0 0 0 0 0 0 0 0 0 0 0 0 0 0 0 0 0 0 0 0 0 0 0 0 0 0 0 0 0 0
417 291 341 323 289 116 244 585 721 879 472 502 481 551 570 418 466 791 350 154 50 73 86 204 182 264 313 451 358 294 320 209 11 76 217 61 0 0 0 4 0 0 0 0 2 2 0 2 0 0 0 0 1 0 1 0 0 0 0 0 0 0 0 0 0 0 0 0 0 0 0 0 0 0 0 0 0 0 0 0 0 0 0 0 0
357 288 261 338 299 311 321 506 426 620 623 573 648 567 587 371 368 498 178 61 140 115 138 137 123 119 92 100 344 265 226 51 206 244 197 0 0 0 7 5 0 0 0 0 0 0 0 0 0 0 2 3 0 0 0 0 0 0 0 0 0 0 0 0 0 0 0 0 0 0 0 0 0 0 0 0 0 0 0 0 0 0 0 0 0
102 91 94 50 24 8 9 55 122 66 485 248 583 619 528 521 496 450 161 123 207 120 78 78 34 0 0 0 0 145 22 0 26 166 180 60 0 5 0 0 0 0 0 0 0 0 0 0 0 0 0 0 0 0 0 0 0 0 0 0 0 0 0 0 0 0 0 0 0 0 0 0 0 0 0 0 0 0 0 0 0 0 0 0 0
54 14 0 0 0 0 0 18 1 127 167 2 73 226 527 531 402 751 127 187 220 139 52 9 0 0 0 0 0 0 0 0 0 0 0 0 0 1 10 4 0 0 0 0 0 0 0 0 0 0 0 0 0 0 0 0 0 0 0 0 0 0 0 0 0 0 0 0 0 0 0 0 0 0 0 0 0 0 0 0 0 0 0 0 0
Wind_Speed
21 21 20 19 18 17 18 19 18 18 18 16 17 15 14 14 15 14 15 15 16 15 15 16 17 17 17 18 18 19 20 21 22 24 26 29 29 31 29 28 28 26 26 25 26 25 23 23 24 24 21 22 19 21 20 19 19 19 19 19 nan nan nan nan nan nan nan nan nan nan nan nan nan nan nan nan nan nan nan nan nan nan nan nan nan
20 21 16 15 16 15 17 17 17 17 15 15 15 14 14 13 13 13 15 15 16 16 15 15 15 18 17 18 19 19 21 20 20 23 25 27 30 30 30 28 28 27 26 25 24 25 23 24 24 26 24 24 22 22 21 21 19 20 20 21 nan nan nan nan nan nan nan nan nan nan nan nan nan nan nan nan nan nan nan nan nan nan nan nan nan
19 15 16 15 17 15 14 12 16 14 12 14 13 13 13 12 13 14 14 15 15 16 13 15 14 16 16 16 19 19 20 20 20 22 23 27 28 29 29 29 29 27 27 26 26 25 25 24 25 28 26 25 23 23 22 22 21 21 22 22 22 nan nan nan nan nan nan nan nan nan nan nan nan nan nan nan nan nan nan nan nan nan nan nan nan
16 15 15 16 15 14 16 11 12 14 11 13 11 11 12 13 14 14 15 14 15 15 15 14 14 15 16 14 17 18 18 20 19 21 23 24 25 27 30 29 29 27 27 26 26 26 25 26 28 27 27 26 26 25 23 22 21 22 23 24 23 22 nan nan nan nan nan nan nan nan nan nan nan nan nan nan nan nan nan nan nan nan nan nan nan
12 12 14 13 14 14 13 11 12 9 11 11 9 13 11 13 14 13 14 13 14 15 14 15 14 15 14 17 17 16 19 19 20 20 20 22 23 25 29 29 27 27 26 25 25 26 27 29 29 26 24 25 25 26 27 nan 24 25 24 25 24 23 24 nan nan nan nan nan nan nan nan nan nan nan nan nan nan nan nan nan nan nan nan nan nan
14 11 12 12 12 12 11 15 11 10 10 10 10 12 14 13 14 13 13 12 14 14 15 14 15 16 15 16 17 18 18 18 20 21 21 21 23 23 25 26 27 27 26 23 23 24 26 27 26 24 21 21 24 24 27 27 nan nan 26 26 24 25 24 nan nan nan nan nan nan nan nan nan nan nan nan nan nan nan nan nan nan nan nan nan nan
14 12 12 14 12 12 11 13 10 11 9 11 10 11 13 12 13 13 12 13 14 15 14 16 15 16 18 15 17 18 17 19 21 19 20 21 20 21 22 19 24 27 25 22 22 18 22 25 24 23 22 22 23 23 25 26 28 nan nan 27 25 24 25 25 nan nan nan nan nan nan nan nan nan nan nan nan nan nan nan nan nan nan nan nan nan
14 12 13 14 12 12 13 12 11 11 11 10 11 12 8 14 12 10 14 13 14 16 15 16 15 16 16 16 18 17 18 18 19 18 20 19 18 19 17 17 16 22 25 22 18 21 22 24 26 27 23 23 22 21 23 24 26 28 nan 29 26 26 25 25 25 25 nan nan nan nan nan nan nan nan nan nan nan nan nan nan nan nan nan nan nan
13 13 13 12 11 11 13 12 12 12 12 13 12 9 10 10 10 10 13 13 13 15 16 16 16 16 15 16 17 17 18 20 19 19 21 18 16 17 16 15 17 21 20 19 21 23 23 22 26 25 25 22 22 20 22 23 24 27 26 27 27 26 25 25 25 24 24 23 nan nan nan nan nan nan nan nan nan nan nan nan nan nan nan nan nan
14 13 12 12 11 12 12 13 12 12 12 15 14 11 10 10 7 12 12 13 12 14 16 16 15 16 17 16 16 16 18 18 20 19 18 19 22 16 14 18 17 18 17 13 16 23 22 24 24 27 25 24 24 22 21 21 21 23 25 24 27 27 26 24 24 24 23 23 22 nan nan nan nan nan nan nan nan nan nan nan nan nan nan nan nan
16 14 12 12 12 12 11 12 12 12 11 12 15 11 9 9 10 13 14 13 14 15 15 15 16 16 17 16 15 17 16 19 19 19 20 22 21 18 13 15 17 18 17 15 17 18 23 22 21 24 28 30 25 23 22 23 23 22 21 22 24 26 27 24 24 24 22 21 22 22 nan nan nan nan nan nan nan nan nan nan nan nan nan nan nan
17 16 14 13 12 12 12 11 12 11 11 10 14 11 10 10 11 12 14 14 14 15 15 14 16 16 16 17 16 16 17 18 18 19 21 21 20 20 18 17 18 19 18 15 19 14 22 26 24 28 30 26 20 24 24 25 24 23 23 25 24 23 25 23 24 25 23 22 20 21 23 nan nan nan nan nan nan nan nan nan nan nan nan nan nan
18 18 17 15 13 13 13 13 12 12 13 11 12 13 11 10 11 12 12 13 14 12 13 12 13 13 14 15 17 17 18 15 16 17 19 19 20 20 21 19 20 21 20 19 18 19 28 21 24 29 28 25 22 21 23 25 24 25 23 22 21 22 22 22 22 24 26 23 21 20 22 23 24 nan nan nan nan nan nan nan nan nan nan nan nan
19 18 17 16 15 14 13 13 13 14 14 14 14 13 12 12 12 12 11 12 13 12 13 11 11 11 12 14 15 17 17 16 14 17 16 17 18 18 19 19 20 21 21 21 22 22 25 26 26 27 28 23 24 26 25 23 23 23 24 26 24 22 21 22 23 24 26 25 22 21 24 23 23 23 nan nan nan nan nan nan nan nan nan nan nan
19 19 17 16 14 13 13 14 14 15 14 14 15 15 14 13 13 11 13 14 13 14 12 10 12 13 14 13 14 15 18 15 15 17 15 16 17 17 17 16 19 19 20 20 21 22 23 24 24 24 25 26 24 23 25 25 23 26 24 28 30 27 22 24 24 24 23 25 27 23 25 23 23 23 23 nan nan nan nan nan nan nan nan nan nan
18 19 18 17 14 13 12 12 15 16 16 17 16 16 15 15 15 13 12 13 13 15 14 13 13 10 13 14 15 12 16 16 19 18 16 16 15 15 16 17 18 20 19 21 21 22 23 24 24 25 25 26 24 24 23 21 20 20 23 27 23 21 22 23 22 22 21 21 24 24 26 25 24 24 23 23 nan nan nan nan nan nan nan nan nan
17 17 19 18 16 14 12 12 13 16 17 17 17 18 16 16 16 14 13 12 16 16 16 16 15 18 15 15 13 14 16 17 17 20 15 17 18 15 19 15 18 18 19 21 21 22 21 21 21 24 24 22 23 24 23 21 19 21 24 24 17 17 18 20 22 19 18 22 23 23 24 25 24 24 22 22 22 23 nan nan nan nan nan nan nan
16 17 18 18 18 16 14 13 14 14 16 17 18 18 18 18 18 17 16 16 15 17 17 19 17 18 18 18 16 15 18 16 15 17 18 18 18 18 19 19 17 17 19 21 22 22 21 20 20 23 22 21 20 23 22 23 24 27 26 23 19 22 25 24 18 18 18 21 23 22 23 24 23 23 24 23 22 22 21 nan nan nan nan nan nan
18 18 18 17 17 19 20 19 17 16 16 18 19 19 19 20 20 18 19 19 18 17 18 19 20 20 18 18 18 17 16 14 18 21 17 17 18 19 21 21 20 20 20 21 19 20 20 19 21 22 22 23 23 23 25 27 29 30 30 27 29 31 30 27 25 24 23 25 28 27 25 23 24 24 24 21 21 21 20 19 20 nan nan nan nan
20 20 20 20 21 22 22 23 22 19 17 18 19 19 19 21 21 21 20 20 20 18 20 21 18 22 20 20 19 18 16 16 17 18 14 15 19 22 23 23 23 23 22 23 23 22 23 23 24 23 20 20 20 23 26 28 27 27 23 23 27 30 27 26 25 25 28 27 30 32 33 29 24 32 23 17 22 21 20 20 19 18 17 nan nan
23 24 24 25 25 25 23 24 23 20 18 18 19 19 19 20 21 21 22 22 21 22 21 21 19 21 22 20 19 19 18 17 17 17 14 17 22 21 23 24 25 24 23 25 25 25 25 26 26 26 25 26 24 30 29 30 29 nan 26 22 21 22 23 26 28 28 28 30 31 32 34 34 31 28 22 21 22 20 21 19 18 16 15 16 16
25 26 26 nan nan 25 nan 23 23 22 nan nan nan 20 19 21 21 21 22 22 23 23 23 22 21 21 19 22 20 20 19 20 18 18 17 19 19 22 22 22 24 nan nan 26 27 27 nan nan nan nan 27 27 31 nan 32 30 28 nan 28 27 24 22 25 28 30 31 32 31 31 33 34 37 35 27 23 22 21 19 21 21 17 14 14 14 13
25 26 26 nan nan nan 23 23 nan nan nan nan nan nan 20 21 22 22 23 23 24 25 25 24 23 22 21 20 20 20 19 20 21 20 20 21 23 24 nan nan nan nan nan nan nan nan nan nan nan nan nan nan nan nan nan nan nan nan nan nan nan nan 28 29 31 32 33 31 31 33 38 43 42 39 35 28 22 20 20 21 19 15 15 13 13
26 nan nan nan nan nan nan nan nan nan nan nan nan nan nan nan nan nan nan 23 25 26 25 26 24 24 22 21 21 21 21 20 21 20 19 22 21 23 nan nan nan nan nan nan nan nan nan nan nan nan nan nan nan nan nan nan nan nan nan nan nan nan nan nan 32 33 33 nan 32 nan nan 40 43 44 43 46 49 48 40 31 27 27 25 23 16
nan nan nan nan nan nan nan nan nan nan nan nan nan nan nan nan nan nan nan nan nan nan nan 25 25 nan 24 23 nan 23 23 23 22 20 21 21 21 22 nan nan nan nan nan nan nan nan nan nan nan nan nan nan nan nan nan nan nan nan nan nan nan nan nan nan nan nan nan nan nan nan nan nan nan 42 44 45 47 49 46 43 42 39 38 35 34
nan nan nan nan nan nan nan nan nan nan nan nan nan nan nan nan nan nan nan nan nan nan nan nan nan nan nan nan nan nan nan nan nan nan 20 20 20 21 23 nan nan nan nan nan nan nan nan nan nan nan nan nan nan nan nan nan nan nan nan nan nan nan nan nan nan nan nan nan nan nan nan nan nan nan nan nan nan nan nan nan nan 43 39 35 34
nan nan nan nan nan nan nan nan nan nan nan nan nan nan nan nan nan nan nan nan nan nan nan nan nan nan nan nan nan nan nan nan nan nan nan nan nan nan nan nan nan nan nan nan nan nan nan nan nan nan nan nan nan nan nan nan nan nan nan nan nan nan nan nan nan nan nan nan nan nan nan nan nan nan nan nan nan nan nan nan nan nan nan nan nan
nan nan nan nan nan nan nan nan nan nan nan nan nan nan nan nan nan nan nan nan nan nan nan nan nan nan nan nan nan nan nan nan nan nan nan nan nan nan nan nan nan nan nan nan nan nan nan nan nan nan nan nan nan nan nan nan nan nan nan nan nan nan nan nan nan nan nan nan nan nan nan nan nan nan nan nan nan nan nan nan nan nan nan nan nan
nan nan nan nan nan nan nan nan nan nan nan nan nan nan nan nan nan nan nan nan nan nan nan nan nan nan nan nan nan nan nan nan nan nan nan nan nan nan nan nan nan nan nan nan nan nan nan nan nan nan nan nan nan nan nan nan nan nan nan nan nan nan nan nan nan nan nan nan nan nan nan nan nan nan nan nan nan nan nan nan nan nan nan nan nan
nan nan nan nan nan nan nan nan nan nan nan nan nan nan nan nan nan nan nan nan nan nan nan nan nan nan nan nan nan nan nan nan nan nan nan nan nan nan nan nan nan nan nan nan nan nan nan nan nan nan nan nan nan nan nan nan nan nan nan nan nan nan nan nan nan nan nan nan nan nan nan nan nan nan nan nan nan nan nan nan nan nan nan nan nan
nan nan nan nan nan nan nan nan nan nan nan nan nan nan nan nan nan nan nan nan nan nan nan nan nan nan nan nan nan nan nan nan nan nan nan nan nan nan nan nan nan nan nan nan nan nan nan nan nan nan nan nan nan nan nan nan nan nan nan nan nan nan nan nan nan nan nan nan nan nan nan nan nan nan nan nan nan nan nan nan nan nan nan nan nan
nan nan nan nan nan nan nan nan nan nan nan nan nan nan nan nan nan nan nan nan nan nan nan nan nan nan nan nan nan nan nan nan nan nan nan nan nan nan nan nan nan nan nan nan nan nan nan nan nan nan nan nan nan nan nan nan nan nan nan nan nan nan nan nan nan nan nan nan nan nan nan nan nan nan nan nan nan nan nan nan nan nan nan nan nan
nan nan nan nan nan nan nan nan nan nan nan nan nan nan nan nan nan nan nan nan nan nan nan nan nan nan nan nan nan nan nan nan nan nan nan nan nan nan nan nan nan nan nan nan nan nan nan nan nan nan nan nan nan nan nan nan nan nan nan nan nan nan nan nan nan nan nan nan nan nan nan nan nan nan nan nan nan nan nan nan nan nan nan nan nan
20 nan nan nan nan nan nan nan nan nan nan nan nan nan nan nan nan nan nan nan nan nan nan nan nan nan nan nan nan nan nan nan nan nan nan nan nan nan nan nan nan nan nan nan nan nan nan nan nan nan nan nan nan nan nan nan nan nan nan nan nan nan nan nan nan nan nan nan nan nan nan nan nan nan nan nan nan nan nan nan nan nan nan nan nan
19 nan 25 25 nan nan nan nan nan nan nan nan nan nan nan nan nan nan nan nan nan nan nan nan nan nan nan nan nan nan nan nan nan nan nan nan nan nan nan nan nan nan nan nan nan nan nan nan nan nan nan nan nan nan nan nan nan nan nan nan nan nan nan nan nan nan nan nan nan nan nan nan nan nan nan nan nan nan nan nan nan nan nan nan nan
18 21 24 26 26 24 23 22 23 22 23 23 23 24 nan nan nan nan nan nan nan nan nan nan nan nan nan nan nan nan nan nan nan nan nan nan nan nan nan nan nan nan nan nan nan nan nan nan nan nan nan nan nan nan nan nan nan nan nan nan nan nan nan nan nan nan nan nan nan nan nan nan nan nan nan nan nan nan nan nan nan nan nan nan nan
18 20 22 25 26 25 23 22 22 22 22 23 25 25 25 24 24 23 22 23 23 nan 21 nan nan nan nan nan nan nan nan nan nan nan nan nan nan nan nan nan nan nan nan nan nan nan nan nan nan nan nan nan nan nan nan nan nan nan nan nan nan nan nan nan nan nan nan nan nan nan nan nan nan nan nan nan nan nan nan nan nan nan nan nan nan
19 20 21 22 23 23 21 21 22 24 25 26 26 25 25 25 24 24 23 24 24 23 24 nan nan nan nan nan nan nan nan nan nan nan nan nan nan nan nan nan nan nan nan nan nan nan nan nan nan nan nan nan nan nan nan nan nan nan nan nan nan nan nan nan nan nan nan nan nan nan nan nan nan nan nan nan nan nan nan nan nan nan nan nan nan
22 21 20 21 23 24 25 26 27 28 29 27 25 25 25 24 23 23 25 24 24 24 24 24 23 nan nan nan nan nan nan nan nan nan nan nan nan nan nan nan nan nan nan nan nan nan nan nan nan nan nan nan nan nan nan nan nan nan nan nan nan nan nan nan nan nan nan nan nan nan nan nan nan nan nan nan nan nan nan nan nan nan nan nan nan
23 22 22 23 24 25 28 30 30 31 31 28 26 25 25 25 24 23 24 25 25 25 24 22 21 20 18 nan nan nan nan nan nan nan nan nan nan nan nan nan nan nan nan nan nan nan nan nan nan nan nan nan nan nan nan nan nan nan nan nan nan nan nan nan nan nan nan nan nan nan nan nan nan nan nan nan nan nan nan nan nan nan nan nan nan
25 25 25 25 27 28 30 31 33 34 32 31 29 28 28 29 27 25 25 25 25 24 24 23 23 22 21 22 23 nan nan nan nan nan nan nan nan nan nan nan nan nan nan nan nan nan nan nan nan nan nan nan nan nan nan nan nan nan nan nan nan nan nan nan nan nan nan nan nan nan nan nan nan nan nan nan nan nan nan nan nan nan nan nan nan
30 29 29 29 29 30 31 32 33 35 34 32 38 36 29 28 30 29 30 28 28 28 28 27 27 27 27 28 31 nan nan nan nan nan nan nan nan nan nan nan nan nan nan nan nan nan nan nan nan nan nan nan nan nan nan nan nan nan nan nan nan nan nan nan nan nan nan nan nan nan nan nan nan nan nan nan nan nan nan nan nan nan nan nan nan
34 34 34 34 34 34 34 35 36 35 34 36 nan nan nan nan 28 31 31 31 31 31 31 31 31 32 33 34 36 42 nan nan nan nan nan nan nan nan nan nan nan nan nan nan nan nan nan nan nan nan nan nan nan nan nan nan nan nan nan nan nan nan nan nan nan nan nan nan nan nan nan nan nan nan nan nan nan nan nan nan nan nan nan nan nan
38 39 39 41 40 38 38 36 35 35 36 45 nan nan nan nan nan 31 33 34 35 35 36 36 37 38 39 40 40 42 38 37 nan nan nan nan nan nan nan nan nan nan nan nan nan nan nan nan nan nan nan nan nan nan nan nan nan nan nan nan nan nan nan nan nan nan nan nan nan nan nan nan nan nan nan nan nan nan nan nan nan nan nan nan nan
40 39 39 42 41 39 39 38 36 34 35 45 nan nan nan 32 29 29 36 39 38 39 40 41 41 41 41 41 40 39 41 45 36 35 38 40 nan nan nan nan nan nan nan nan nan nan nan nan nan nan nan nan nan nan nan nan nan nan nan nan nan nan nan nan nan nan nan nan nan nan nan nan nan nan nan nan nan nan nan nan nan nan nan nan nan
43 44 43 39 37 37 39 38 37 37 38 48 45 42 39 36 35 32 40 42 42 43 44 44 42 40 39 37 37 38 41 40 36 37 38 41 nan nan nan nan nan nan nan nan nan nan nan nan nan nan nan nan nan nan nan nan nan nan nan nan nan nan nan nan nan nan nan nan nan nan nan nan nan nan nan nan nan nan nan nan nan nan nan nan nan
41 43 nan nan nan 39 38 36 36 38 47 48 44 41 42 40 41 38 43 45 45 47 47 46 43 41 39 37 36 36 38 37 37 39 nan 42 nan nan nan nan nan nan nan nan nan nan nan nan nan nan nan nan nan nan nan nan nan nan nan nan nan nan nan nan nan nan nan nan nan nan nan nan nan nan nan nan nan nan nan nan nan nan nan nan nan
43 43 43 44 44 40 35 31 31 36 44 45 42 42 42 44 46 43 47 48 nan nan nan 46 43 42 41 39 37 38 38 39 nan nan 39 nan nan nan nan nan nan nan nan nan nan nan nan nan nan nan nan nan nan nan nan nan nan nan nan nan nan nan nan nan nan nan nan nan nan nan nan nan nan nan nan nan nan nan nan nan nan nan nan nan nan
43 44 46 47 45 42 37 34 34 37 43 44 45 45 46 48 46 46 48 nan 49 48 47 45 44 45 nan 42 39 39 40 nan 46 45 45 nan nan nan nan nan nan nan nan nan nan nan nan nan nan nan nan nan nan nan nan nan nan nan nan nan nan nan nan nan nan nan nan nan nan nan nan nan nan nan nan nan nan nan nan nan nan nan nan nan nan
47 nan nan nan nan nan nan nan 47 nan 50 52 51 52 49 47 42 45 46 45 47 47 nan nan nan nan nan nan nan 43 nan nan nan 48 47 nan nan nan nan nan nan nan nan nan nan nan nan nan nan nan nan nan nan nan nan nan nan nan nan nan nan nan nan nan nan nan nan nan nan nan nan nan nan nan nan nan nan nan nan nan nan nan nan nan nan
nan nan nan nan nan nan nan nan nan 50 53 nan nan 52 48 45 42 43 43 44 44 44 nan nan nan nan nan nan nan nan nan nan nan nan nan nan nan nan nan nan nan nan nan nan nan nan nan nan nan nan nan nan nan nan nan nan nan nan nan nan nan nan nan nan nan nan nan nan nan nan nan nan nan nan nan nan nan nan nan nan nan nan nan nan nan
Wind_Direction
285 284 280 277 278 275 277 278 278 273 283 278 275 270 265 261 262 262 261 256 250 247 246 243 241 244 243 245 247 252 251 251 251 256 255 257 262 270 272 269 264 259 261 263 266 266 266 264 265 267 262 260 261 269 268 265 263 261 262 262 nan nan nan nan nan nan nan nan nan nan nan nan nan nan nan nan nan nan nan nan nan nan nan nan nan
264 260 270 279 271 273 263 275 279 284 291 287 276 270 267 266 265 262 264 257 252 250 244 244 243 243 244 248 252 248 255 254 255 253 256 258 259 265 274 270 265 263 255 260 264 266 265 264 266 266 263 263 261 268 274 271 267 263 262 263 nan nan nan nan nan nan nan nan nan nan nan nan nan nan nan nan nan nan nan nan nan nan nan nan nan
281 295 296 293 283 284 296 274 286 288 294 285 276 273 272 269 263 261 257 253 252 252 247 243 240 249 246 247 251 250 252 255 254 255 256 256 258 264 269 272 268 264 261 257 253 262 264 260 261 267 265 263 261 257 266 271 268 266 267 264 264 nan nan nan nan nan nan nan nan nan nan nan nan nan nan nan nan nan nan nan nan nan nan nan nan
284 304 308 299 296 289 281 300 280 287 287 271 260 272 272 270 268 260 251 249 250 250 247 245 241 245 251 250 251 250 252 253 254 256 255 258 258 260 265 268 267 267 265 261 261 257 259 265 262 263 269 267 266 264 257 261 264 265 264 266 267 264 nan nan nan nan nan nan nan nan nan nan nan nan nan nan nan nan nan nan nan nan nan nan nan
292 307 299 296 296 289 289 304 292 285 284 291 295 274 264 269 276 267 265 260 255 255 253 251 248 246 246 255 250 248 247 250 251 254 257 259 259 259 267 267 264 264 265 265 262 262 259 253 265 264 270 273 270 268 264 nan 258 263 269 268 267 266 263 nan nan nan nan nan nan nan nan nan nan nan nan nan nan nan nan nan nan nan nan nan nan
305 311 302 300 295 293 307 295 293 287 290 284 291 288 287 281 273 278 270 267 264 260 256 259 257 261 258 251 253 248 250 252 253 252 253 255 257 258 259 268 266 256 262 266 263 264 260 262 268 275 277 274 270 265 265 261 nan nan 266 266 264 264 264 nan nan nan nan nan nan nan nan nan nan nan nan nan nan nan nan nan nan nan nan nan nan
310 309 300 298 300 295 299 284 290 295 299 299 294 281 266 283 280 259 276 267 265 261 257 256 257 262 262 258 261 261 255 249 255 255 260 260 259 260 260 261 261 263 253 259 274 270 269 267 270 279 282 277 276 270 264 262 262 nan nan 272 266 265 265 265 nan nan nan nan nan nan nan nan nan nan nan nan nan nan nan nan nan nan nan nan nan
300 303 296 294 298 299 292 297 295 292 300 295 292 270 287 276 270 277 265 271 267 267 262 261 259 257 259 260 258 254 259 258 255 254 259 261 265 264 264 258 252 241 255 271 269 282 281 270 270 272 278 278 275 271 268 265 263 264 nan 270 271 273 271 269 266 264 nan nan nan nan nan nan nan nan nan nan nan nan nan nan nan nan nan nan nan
294 294 288 287 292 292 293 296 299 301 299 290 273 301 271 255 277 272 271 265 267 272 267 264 265 266 263 262 260 259 256 257 260 256 254 255 260 275 269 267 258 248 241 239 269 273 281 272 272 268 272 271 272 262 263 268 262 263 266 271 271 275 272 268 270 268 265 265 nan nan nan nan nan nan nan nan nan nan nan nan nan nan nan nan nan
292 290 289 288 284 285 290 295 297 297 300 298 297 266 274 283 273 271 272 268 268 264 267 268 268 267 266 263 262 262 260 259 255 259 260 259 253 236 258 263 262 262 256 252 253 271 272 272 268 267 261 263 264 263 259 259 261 264 268 269 276 276 272 267 269 272 271 267 264 nan nan nan nan nan nan nan nan nan nan nan nan nan nan nan nan
293 291 286 285 287 284 284 288 290 289 289 287 285 299 292 286 280 277 267 265 262 263 261 263 265 266 269 272 270 268 260 258 256 255 256 255 261 271 247 263 263 263 261 258 250 251 282 280 270 257 262 248 243 260 258 253 252 250 255 262 267 270 273 270 263 274 269 268 264 262 nan nan nan nan nan nan nan nan nan nan nan nan nan nan nan
285 283 283 278 277 277 277 280 281 283 286 288 288 287 289 285 280 276 278 272 264 265 266 266 268 269 268 263 264 268 269 264 262 259 256 259 261 261 269 264 265 262 272 261 265 274 256 274 276 273 269 272 254 240 247 251 250 246 251 251 238 242 261 264 265 267 271 267 265 264 264 nan nan nan nan nan nan nan nan nan nan nan nan nan nan
283 284 285 285 279 276 275 274 273 274 276 277 283 294 289 278 274 274 277 274 272 272 272 272 275 273 269 271 268 267 266 267 269 270 264 259 260 263 264 266 263 266 259 262 268 263 267 254 266 265 268 273 278 265 240 231 235 241 242 253 261 257 244 246 257 258 270 270 266 265 269 269 268 nan nan nan nan nan nan nan nan nan nan nan nan
284 281 279 282 286 284 281 278 274 276 275 278 282 284 289 287 279 274 270 265 262 268 271 274 274 262 268 271 271 273 275 275 273 268 265 268 266 266 265 263 269 266 263 263 260 262 268 270 267 275 274 270 266 270 270 258 244 236 234 237 240 246 249 247 246 246 246 249 260 260 266 271 271 270 nan nan nan nan nan nan nan nan nan nan nan
287 283 279 274 272 274 279 281 284 280 282 283 283 284 282 281 283 275 275 262 260 263 260 255 254 263 262 264 276 281 274 278 280 273 266 258 258 259 260 272 265 263 265 265 266 265 263 263 265 269 273 273 269 270 273 267 256 248 243 244 238 244 247 244 243 240 241 244 243 250 268 270 268 269 266 nan nan nan nan nan nan nan nan nan nan
282 285 281 273 269 267 269 269 271 274 272 277 279 278 281 281 282 279 271 274 272 269 261 259 263 269 273 266 262 263 279 285 285 267 260 265 263 266 263 258 265 266 268 265 264 267 271 272 269 267 268 270 271 272 274 272 271 268 262 255 252 250 248 249 250 248 248 246 250 247 254 272 271 270 268 265 nan nan nan nan nan nan nan nan nan
278 275 277 277 273 269 266 267 268 271 275 276 277 279 282 279 274 273 274 257 268 265 269 264 257 255 264 269 279 282 268 279 271 267 262 269 264 264 266 264 262 261 263 265 266 266 266 268 267 268 268 271 270 269 272 279 276 266 263 261 254 255 256 249 244 248 253 255 253 254 252 262 269 271 269 265 263 262 nan nan nan nan nan nan nan
274 273 275 282 285 286 283 280 276 273 273 274 275 276 278 280 282 278 273 269 257 268 266 264 260 260 258 263 267 254 265 280 286 280 276 268 266 264 265 267 270 268 268 272 275 276 283 283 280 277 275 272 271 272 274 271 266 265 261 263 251 244 240 238 243 245 248 255 256 251 252 255 261 268 269 265 267 268 268 nan nan nan nan nan nan
270 270 272 277 288 292 292 286 281 280 277 274 271 272 271 271 274 276 273 272 272 269 269 268 268 268 269 267 264 262 256 261 269 274 272 264 266 269 267 267 267 268 268 263 263 270 269 268 274 279 280 281 278 278 273 266 267 266 258 258 251 243 244 243 242 247 253 248 247 249 253 255 256 254 253 261 273 276 274 272 269 nan nan nan nan
274 271 270 274 283 291 291 286 281 279 277 274 273 270 272 271 268 270 272 271 275 271 272 273 271 275 276 275 276 266 266 268 269 283 275 279 280 273 269 268 267 265 265 268 264 260 262 258 257 261 264 266 270 270 261 267 271 269 268 259 258 257 255 253 251 251 251 251 244 239 240 248 247 252 255 251 245 255 267 268 269 267 264 nan nan
273 275 272 275 283 289 290 284 277 273 274 276 272 271 270 272 275 274 272 273 272 271 274 276 278 276 283 282 279 274 274 269 264 267 264 269 274 274 272 273 270 267 269 266 267 267 263 260 262 266 270 275 269 263 262 261 263 nan 264 263 265 263 258 255 251 249 249 249 247 243 239 240 253 261 276 267 259 256 254 257 262 267 270 262 258
274 272 274 nan nan 284 nan 279 272 269 nan nan nan 275 273 276 275 276 277 276 275 274 272 274 273 273 275 275 276 275 269 266 267 267 261 251 265 273 273 273 269 nan nan 270 270 268 nan nan nan nan 269 270 268 nan 265 265 266 nan 265 262 262 262 259 254 250 247 248 250 249 246 245 243 244 250 257 258 262 261 258 255 260 265 262 261 265
275 274 274 nan nan nan 279 274 nan nan nan nan nan nan 276 278 282 282 282 283 283 281 280 277 276 276 278 278 277 275 267 266 265 265 260 264 264 265 nan nan nan nan nan nan nan nan nan nan nan nan nan nan nan nan nan nan nan nan nan nan nan nan 261 258 253 250 249 249 248 247 246 247 248 247 247 253 261 265 270 275 270 264 259 256 253
276 nan nan nan nan nan nan nan nan nan nan nan nan nan nan nan nan nan nan 279 279 280 278 277 275 277 276 273 267 265 268 268 268 265 264 264 264 267 nan nan nan nan nan nan nan nan nan nan nan nan nan nan nan nan nan nan nan nan nan nan nan nan nan nan 257 256 254 nan 250 nan nan 252 251 250 247 244 243 244 245 245 248 249 246 238 236
nan nan nan nan nan nan nan nan nan nan nan nan nan nan nan nan nan nan nan nan nan nan nan 269 270 nan 272 270 nan 267 265 261 261 264 265 265 264 268 nan nan nan nan nan nan nan nan nan nan nan nan nan nan nan nan nan nan nan nan nan nan nan nan nan nan nan nan nan nan nan nan nan nan nan 255 254 252 247 245 245 247 248 248 247 241 235
nan nan nan nan nan nan nan nan nan nan nan nan nan nan nan nan nan nan nan nan nan nan nan nan nan nan nan nan nan nan nan nan nan nan 265 268 268 267 268 nan nan nan nan nan nan nan nan nan nan nan nan nan nan nan nan nan nan nan nan nan nan nan nan nan nan nan nan nan nan nan nan nan nan nan nan nan nan nan nan nan nan 249 247 243 240
nan nan nan nan nan nan nan nan nan nan nan nan nan nan nan nan nan nan nan nan nan nan nan nan nan nan nan nan nan nan nan nan nan nan nan nan nan nan nan nan nan nan nan nan nan nan nan nan nan nan nan nan nan nan nan nan nan nan nan nan nan nan nan nan nan nan nan nan nan nan nan nan nan nan nan nan nan nan nan nan nan nan nan nan nan
nan nan nan nan nan nan nan nan nan nan nan nan nan nan nan nan nan nan nan nan nan nan nan nan nan nan nan nan nan nan nan nan nan nan nan nan nan nan nan nan nan nan nan nan nan nan nan nan nan nan nan nan nan nan nan nan nan nan nan nan nan nan nan nan nan nan nan nan nan nan nan nan nan nan nan nan nan nan nan nan nan nan nan nan nan
nan nan nan nan nan nan nan nan nan nan nan nan nan nan nan nan nan nan nan nan nan nan nan nan nan nan nan nan nan nan nan nan nan nan nan nan nan nan nan nan nan nan nan nan nan nan nan nan nan nan nan nan nan nan nan nan nan nan nan nan nan nan nan nan nan nan nan nan nan nan nan nan nan nan nan nan nan nan nan nan nan nan nan nan nan
nan nan nan nan nan nan nan nan nan nan nan nan nan nan nan nan nan nan nan nan nan nan nan nan nan nan nan nan nan nan nan nan nan nan nan nan nan nan nan nan nan nan nan nan nan nan nan nan nan nan nan nan nan nan nan nan nan nan nan nan nan nan nan nan nan nan nan nan nan nan nan nan nan nan nan nan nan nan nan nan nan nan nan nan nan
nan nan nan nan nan nan nan nan nan nan nan nan nan nan nan nan nan nan nan nan nan nan nan nan nan nan nan nan nan nan nan nan nan nan nan nan nan nan nan nan nan nan nan nan nan nan nan nan nan nan nan nan nan nan nan nan nan nan nan nan nan nan nan nan nan nan nan nan nan nan nan nan nan nan nan nan nan nan nan nan nan nan nan nan nan
nan nan nan nan nan nan nan nan nan nan nan nan nan nan nan nan nan nan nan nan nan nan nan nan nan nan nan nan nan nan nan nan nan nan nan nan nan nan nan nan nan nan nan nan nan nan nan nan nan nan nan nan nan nan nan nan nan nan nan nan nan nan nan nan nan nan nan nan nan nan nan nan nan nan nan nan nan nan nan nan nan nan nan nan nan
nan nan nan nan nan nan nan nan nan nan nan nan nan nan nan nan nan nan nan nan nan nan nan nan nan nan nan nan nan nan nan nan nan nan nan nan nan nan nan nan nan nan nan nan nan nan nan nan nan nan nan nan nan nan nan nan nan nan nan nan nan nan nan nan nan nan nan nan nan nan nan nan nan nan nan nan nan nan nan nan nan nan nan nan nan
296 nan nan nan nan nan nan nan nan nan nan nan nan nan nan nan nan nan nan nan nan nan nan nan nan nan nan nan nan nan nan nan nan nan nan nan nan nan nan nan nan nan nan nan nan nan nan nan nan nan nan nan nan nan nan nan nan nan nan nan nan nan nan nan nan nan nan nan nan nan nan nan nan nan nan nan nan nan nan nan nan nan nan nan nan
297 nan 296 297 nan nan nan nan nan nan nan nan nan nan nan nan nan nan nan nan nan nan nan nan nan nan nan nan nan nan nan nan nan nan nan nan nan nan nan nan nan nan nan nan nan nan nan nan nan nan nan nan nan nan nan nan nan nan nan nan nan nan nan nan nan nan nan nan nan nan nan nan nan nan nan nan nan nan nan nan nan nan nan nan nan
299 299 301 301 299 297 293 285 278 276 277 276 278 276 nan nan nan nan nan nan nan nan nan nan nan nan nan nan nan nan nan nan nan nan nan nan nan nan nan nan nan nan nan nan nan nan nan nan nan nan nan nan nan nan nan nan nan nan nan nan nan nan nan nan nan nan nan nan nan nan nan nan nan nan nan nan nan nan nan nan nan nan nan nan nan
300 301 303 302 301 301 296 292 283 279 279 280 279 277 274 272 269 267 266 264 260 nan 254 nan nan nan nan nan nan nan nan nan nan nan nan nan nan nan nan nan nan nan nan nan nan nan nan nan nan nan nan nan nan nan nan nan nan nan nan nan nan nan nan nan nan nan nan nan nan nan nan nan nan nan nan nan nan nan nan nan nan nan nan nan nan
299 301 305 303 302 300 296 292 288 284 283 283 283 279 276 272 267 263 261 260 259 257 260 nan nan nan nan nan nan nan nan nan nan nan nan nan nan nan nan nan nan nan nan nan nan nan nan nan nan nan nan nan nan nan nan nan nan nan nan nan nan nan nan nan nan nan nan nan nan nan nan nan nan nan nan nan nan nan nan nan nan nan nan nan nan
297 300 300 300 295 294 294 293 292 289 286 285 283 281 277 273 267 263 263 261 259 261 267 273 275 nan nan nan nan nan nan nan nan nan nan nan nan nan nan nan nan nan nan nan nan nan nan nan nan nan nan nan nan nan nan nan nan nan nan nan nan nan nan nan nan nan nan nan nan nan nan nan nan nan nan nan nan nan nan nan nan nan nan nan nan
293 296 296 295 290 287 286 287 287 285 282 280 279 277 274 274 270 264 260 260 261 263 266 269 270 270 272 nan nan nan nan nan nan nan nan nan nan nan nan nan nan nan nan nan nan nan nan nan nan nan nan nan nan nan nan nan nan nan nan nan nan nan nan nan nan nan nan nan nan nan nan nan nan nan nan nan nan nan nan nan nan nan nan nan nan
283 285 285 285 284 284 283 282 283 282 281 277 273 271 271 272 271 266 260 259 261 262 265 268 270 270 271 275 280 nan nan nan nan nan nan nan nan nan nan nan nan nan nan nan nan nan nan nan nan nan nan nan nan nan nan nan nan nan nan nan nan nan nan nan nan nan nan nan nan nan nan nan nan nan nan nan nan nan nan nan nan nan nan nan nan
280 279 279 278 277 277 278 278 276 275 274 271 265 261 254 265 269 264 263 260 260 261 261 262 264 267 269 272 277 nan nan nan nan nan nan nan nan nan nan nan nan nan nan nan nan nan nan nan nan nan nan nan nan nan nan nan nan nan nan nan nan nan nan nan nan nan nan nan nan nan nan nan nan nan nan nan nan nan nan nan nan nan nan nan nan
280 279 277 276 274 271 270 269 269 266 264 260 nan nan nan nan 255 264 263 262 262 262 263 264 265 268 271 273 274 281 nan nan nan nan nan nan nan nan nan nan nan nan nan nan nan nan nan nan nan nan nan nan nan nan nan nan nan nan nan nan nan nan nan nan nan nan nan nan nan nan nan nan nan nan nan nan nan nan nan nan nan nan nan nan nan
279 277 275 271 268 266 263 260 259 259 256 257 nan nan nan nan nan 257 263 262 263 264 266 267 268 269 270 272 273 276 280 282 nan nan nan nan nan nan nan nan nan nan nan nan nan nan nan nan nan nan nan nan nan nan nan nan nan nan nan nan nan nan nan nan nan nan nan nan nan nan nan nan nan nan nan nan nan nan nan nan nan nan nan nan nan
262 262 264 268 268 266 267 266 263 257 254 258 nan nan nan 260 261 257 265 265 266 267 266 266 266 268 271 274 276 277 275 278 280 279 279 277 nan nan nan nan nan nan nan nan nan nan nan nan nan nan nan nan nan nan nan nan nan nan nan nan nan nan nan nan nan nan nan nan nan nan nan nan nan nan nan nan nan nan nan nan nan nan nan nan nan
273 272 272 269 266 267 266 263 260 259 259 258 258 259 262 264 267 263 264 267 267 266 266 266 267 267 268 270 272 275 276 278 277 276 277 278 nan nan nan nan nan nan nan nan nan nan nan nan nan nan nan nan nan nan nan nan nan nan nan nan nan nan nan nan nan nan nan nan nan nan nan nan nan nan nan nan nan nan nan nan nan nan nan nan nan
275 274 nan nan nan 270 270 266 261 257 254 257 259 262 264 267 270 266 267 267 268 267 266 266 266 266 267 268 270 270 274 276 274 274 nan 281 nan nan nan nan nan nan nan nan nan nan nan nan nan nan nan nan nan nan nan nan nan nan nan nan nan nan nan nan nan nan nan nan nan nan nan nan nan nan nan nan nan nan nan nan nan nan nan nan nan
275 277 277 274 271 266 263 265 262 259 255 257 260 264 268 271 273 272 272 271 nan nan nan 266 266 267 268 269 272 273 273 274 nan nan 276 nan nan nan nan nan nan nan nan nan nan nan nan nan nan nan nan nan nan nan nan nan nan nan nan nan nan nan nan nan nan nan nan nan nan nan nan nan nan nan nan nan nan nan nan nan nan nan nan nan nan
276 277 278 276 271 266 264 262 263 262 262 262 264 269 272 274 273 272 272 nan 269 268 265 265 266 264 nan 263 267 271 274 nan 272 274 274 nan nan nan nan nan nan nan nan nan nan nan nan nan nan nan nan nan nan nan nan nan nan nan nan nan nan nan nan nan nan nan nan nan nan nan nan nan nan nan nan nan nan nan nan nan nan nan nan nan nan
278 nan nan nan nan nan nan nan 254 nan 260 262 265 270 272 277 270 269 271 269 267 266 nan nan nan nan nan nan nan 270 nan nan nan 274 276 nan nan nan nan nan nan nan nan nan nan nan nan nan nan nan nan nan nan nan nan nan nan nan nan nan nan nan nan nan nan nan nan nan nan nan nan nan nan nan nan nan nan nan nan nan nan nan nan nan nan
nan nan nan nan nan nan nan nan nan 257 261 nan nan 269 271 273 267 267 267 266 266 267 nan nan nan nan nan nan nan nan nan nan nan nan nan nan nan nan nan nan nan nan nan nan nan nan nan nan nan nan nan nan nan nan nan nan nan nan nan nan nan nan nan nan nan nan nan nan nan nan nan nan nan nan nan nan nan nan nan nan nan nan nan nan nan